Time,TemperatureF,DewpointF,PressureIn,WindDirection,WindDirectionDegrees,WindSpeedMPH,WindSpeedGustMPH,Humidity,HourlyPrecipIn,Conditions,Clouds,dailyrainin,SoftwareType,DateUTC
2013-07-02 00:00:00,71.8,52.7,29.90,North,0,0.0,0.0,51,0.00,,OVC250,0.01,VWS V14.01,2013-07-02 06:00:00,
2013-07-02 00:05:00,71.8,52.7,29.90,North,0,0.0,0.0,51,0.00,,OVC250,0.00,VWS V14.01,2013-07-02 06:05:00,
2013-07-02 00:10:00,71.8,52.7,29.90,North,0,0.0,0.0,51,0.00,,OVC250,0.00,VWS V14.01,2013-07-02 06:10:00,
2013-07-02 00:15:00,71.8,52.2,29.91,North,0,0.0,0.0,50,0.00,,OVC250,0.00,VWS V14.01,2013-07-02 06:15:00,
2013-07-02 00:20:00,71.6,52.5,29.91,North,0,0.0,0.0,51,0.00,,OVC250,0.00,VWS V14.01,2013-07-02 06:20:00,
2013-07-02 00:25:00,71.5,52.4,29.91,North,0,0.0,0.0,51,0.00,,OVC250,0.00,VWS V14.01,2013-07-02 06:25:00,
2013-07-02 00:31:00,71.3,52.3,29.91,North,0,0.0,0.0,51,0.00,,OVC250,0.00,VWS V14.01,2013-07-02 06:31:00,
2013-07-02 00:36:00,71.1,52.6,29.91,North,0,0.0,0.0,52,0.00,,OVC250,0.00,VWS V14.01,2013-07-02 06:36:00,
2013-07-02 00:41:00,70.9,52.4,29.91,North,0,0.0,0.0,52,0.00,,OVC250,0.00,VWS V14.01,2013-07-02 06:41:00,
2013-07-02 00:45:00,70.9,52.4,29.92,North,0,0.0,0.0,52,0.00,,OVC250,0.00,VWS V14.01,2013-07-02 06:45:00,
2013-07-02 00:50:00,70.8,52.8,29.92,North,0,0.0,0.0,53,0.00,,OVC250,0.00,VWS V14.01,2013-07-02 06:50:00,
2013-07-02 00:55:00,70.6,53.2,29.92,North,0,0.0,0.0,54,0.00,,BKN250,0.00,VWS V14.01,2013-07-02 06:55:00,
2013-07-02 01:00:00,70.4,53.5,29.92,North,0,0.0,0.0,55,0.00,,BKN250,0.00,VWS V14.01,2013-07-02 07:00:00,
2013-07-02 01:05:00,70.3,53.4,29.92,North,0,0.0,0.0,55,0.00,,BKN250,0.00,VWS V14.01,2013-07-02 07:05:00,
2013-07-02 01:10:00,70.1,53.7,29.92,North,0,0.0,0.0,56,0.00,,BKN250,0.00,VWS V14.01,2013-07-02 07:10:00,
2013-07-02 01:15:00,69.9,53.5,29.92,North,0,0.0,0.0,56,0.00,,BKN250,0.00,VWS V14.01,2013-07-02 07:15:00,
2013-07-02 01:20:00,69.8,53.4,29.92,North,0,0.0,0.0,56,0.00,,BKN250,0.00,VWS V14.01,2013-07-02 07:20:00,
2013-07-02 01:25:00,69.8,53.9,29.92,North,0,0.0,0.0,57,0.00,,BKN250,0.00,VWS V14.01,2013-07-02 07:25:00,
2013-07-02 01:30:00,69.6,53.7,29.92,North,0,0.0,0.0,57,0.00,,BKN250,0.00,VWS V14.01,2013-07-02 07:30:00,
2013-07-02 01:35:00,69.6,53.7,29.92,North,0,0.0,0.0,57,0.00,,BKN250,0.00,VWS V14.01,2013-07-02 07:35:00,
2013-07-02 01:40:00,69.4,53.5,29.92,North,0,0.0,0.0,57,0.00,,BKN250,0.00,VWS V14.01,2013-07-02 07:40:00,
2013-07-02 01:45:00,69.1,53.2,29.92,North,0,0.0,0.0,57,0.00,,BKN250,0.00,VWS V14.01,2013-07-02 07:45:00,
2013-07-02 01:50:00,69.1,53.2,29.92,North,0,0.0,0.0,57,0.00,,BKN250,0.00,VWS V14.01,2013-07-02 07:50:00,
2013-07-02 01:55:00,68.9,53.1,29.92,North,0,0.0,0.0,57,0.00,,BKN250,0.00,VWS V14.01,2013-07-02 07:55:00,
2013-07-02 02:00:00,68.8,53.0,29.92,North,0,0.0,0.0,57,0.00,,BKN250,0.00,VWS V14.01,2013-07-02 08:00:00,
2013-07-02 02:05:00,68.6,52.3,29.92,North,0,0.0,0.0,56,0.00,,BKN250,0.00,VWS V14.01,2013-07-02 08:05:00,
2013-07-02 02:10:00,68.4,52.1,29.92,North,0,0.0,0.0,56,0.00,,BKN250,0.00,VWS V14.01,2013-07-02 08:10:00,
2013-07-02 02:15:00,68.3,52.5,29.92,North,0,0.0,0.0,57,0.00,,BKN250,0.00,VWS V14.01,2013-07-02 08:15:00,
2013-07-02 02:20:00,68.1,52.3,29.92,North,0,0.0,0.0,57,0.00,,BKN250,0.00,VWS V14.01,2013-07-02 08:20:00,
2013-07-02 02:25:00,68.1,51.8,29.92,North,0,0.0,0.0,56,0.00,,BKN250,0.00,VWS V14.01,2013-07-02 08:25:00,
2013-07-02 02:30:00,67.9,51.6,29.91,North,0,0.0,0.0,56,0.00,,BKN250,0.00,VWS V14.01,2013-07-02 08:30:00,
2013-07-02 02:35:00,67.8,51.5,29.91,North,0,0.0,0.0,56,0.00,,BKN250,0.00,VWS V14.01,2013-07-02 08:35:00,
2013-07-02 02:40:00,67.6,51.8,29.91,North,0,0.0,0.0,57,0.00,,BKN250,0.00,VWS V14.01,2013-07-02 08:40:00,
2013-07-02 02:45:00,67.6,51.4,29.91,North,0,0.0,0.0,56,0.00,,BKN250,0.00,VWS V14.01,2013-07-02 08:45:00,
2013-07-02 02:50:00,67.4,51.7,29.91,North,0,0.0,0.0,57,0.00,,BKN250,0.00,VWS V14.01,2013-07-02 08:50:00,
2013-07-02 02:55:00,67.4,51.7,29.91,North,0,0.0,0.0,57,0.00,,BKN250,0.00,VWS V14.01,2013-07-02 08:55:00,
2013-07-02 03:00:00,67.3,52.0,29.91,North,0,0.0,0.0,58,0.00,,BKN250,0.00,VWS V14.01,2013-07-02 09:00:00,
2013-07-02 03:05:00,67.1,51.8,29.91,North,0,0.0,0.0,58,0.00,,BKN250,0.00,VWS V14.01,2013-07-02 09:05:00,
2013-07-02 03:10:00,67.1,52.3,29.91,North,0,0.0,0.0,59,0.00,,BKN250,0.00,VWS V14.01,2013-07-02 09:10:00,
2013-07-02 03:15:00,67.1,52.3,29.90,North,0,0.0,0.0,59,0.00,,BKN250,0.00,VWS V14.01,2013-07-02 09:15:00,
2013-07-02 03:20:00,66.9,52.1,29.90,North,0,0.0,0.0,59,0.00,,BKN250,0.00,VWS V14.01,2013-07-02 09:20:00,
2013-07-02 03:25:00,66.9,52.6,29.90,North,0,0.0,0.0,60,0.00,,BKN250,0.00,VWS V14.01,2013-07-02 09:25:00,
2013-07-02 03:30:00,66.8,52.5,29.90,North,0,0.0,0.0,60,0.00,,BKN250,0.00,VWS V14.01,2013-07-02 09:30:00,
2013-07-02 03:35:00,66.8,52.5,29.89,North,0,0.0,0.0,60,0.00,,BKN250,0.00,VWS V14.01,2013-07-02 09:35:00,
2013-07-02 03:40:00,66.6,52.8,29.89,North,0,0.0,0.0,61,0.00,,BKN250,0.00,VWS V14.01,2013-07-02 09:40:00,
2013-07-02 03:45:00,66.4,52.6,29.89,North,0,0.0,0.0,61,0.00,,BKN250,0.00,VWS V14.01,2013-07-02 09:45:00,
2013-07-02 03:50:00,66.4,52.6,29.89,North,0,0.0,0.0,61,0.00,,BKN250,0.00,VWS V14.01,2013-07-02 09:50:00,
2013-07-02 03:55:00,66.3,52.5,29.89,North,0,0.0,0.0,61,0.00,,BKN250,0.00,VWS V14.01,2013-07-02 09:55:00,
2013-07-02 04:00:00,66.3,52.5,29.89,North,0,0.0,0.0,61,0.00,,BKN250,0.00,VWS V14.01,2013-07-02 10:00:00,
2013-07-02 04:05:00,66.3,52.5,29.90,North,0,0.0,0.0,61,0.00,,BKN250,0.00,VWS V14.01,2013-07-02 10:05:00,
2013-07-02 04:10:00,66.4,52.1,29.90,North,0,0.0,0.0,60,0.00,,BKN250,0.00,VWS V14.01,2013-07-02 10:10:00,
2013-07-02 04:15:00,66.4,52.1,29.90,North,0,0.0,0.0,60,0.00,,BKN250,0.00,VWS V14.01,2013-07-02 10:15:00,
2013-07-02 04:20:00,66.6,52.3,29.90,North,0,0.0,0.0,60,0.00,,BKN250,0.00,VWS V14.01,2013-07-02 10:20:00,
2013-07-02 04:25:00,66.6,52.3,29.90,North,0,0.0,0.0,60,0.00,,BKN250,0.00,VWS V14.01,2013-07-02 10:25:00,
2013-07-02 04:30:00,66.4,52.1,29.90,North,0,0.0,0.0,60,0.00,,BKN250,0.00,VWS V14.01,2013-07-02 10:30:00,
2013-07-02 04:35:00,66.4,52.1,29.91,North,0,0.0,0.0,60,0.00,,BKN250,0.00,VWS V14.01,2013-07-02 10:35:00,
2013-07-02 04:40:00,66.3,52.0,29.91,North,0,0.0,0.0,60,0.00,,BKN250,0.00,VWS V14.01,2013-07-02 10:40:00,
2013-07-02 04:45:00,66.1,51.8,29.91,North,0,0.0,0.0,60,0.00,,BKN250,0.00,VWS V14.01,2013-07-02 10:45:00,
2013-07-02 04:50:00,66.0,51.7,29.91,North,0,0.0,0.0,60,0.00,,BKN250,0.00,VWS V14.01,2013-07-02 10:50:00,
2013-07-02 04:55:00,66.0,51.7,29.91,North,0,0.0,0.0,60,0.00,,BKN250,0.00,VWS V14.01,2013-07-02 10:55:00,
2013-07-02 05:00:00,65.8,51.5,29.91,North,0,0.0,0.0,60,0.00,,BKN250,0.00,VWS V14.01,2013-07-02 11:00:00,
2013-07-02 05:05:00,65.8,51.5,29.91,North,0,0.0,0.0,60,0.00,,BKN250,0.00,VWS V14.01,2013-07-02 11:05:00,
2013-07-02 05:10:00,65.6,51.8,29.91,North,0,0.0,0.0,61,0.00,,BKN250,0.00,VWS V14.01,2013-07-02 11:10:00,
2013-07-02 05:15:00,65.8,51.5,29.91,North,0,0.0,0.0,60,0.00,,BKN250,0.00,VWS V14.01,2013-07-02 11:15:00,
2013-07-02 05:20:00,65.8,51.5,29.92,North,0,0.0,0.0,60,0.00,,BKN250,0.00,VWS V14.01,2013-07-02 11:20:00,
2013-07-02 05:25:00,65.8,51.5,29.92,North,0,0.0,0.0,60,0.00,,BKN250,0.00,VWS V14.01,2013-07-02 11:25:00,
2013-07-02 05:30:00,65.6,51.4,29.92,North,0,0.0,0.0,60,0.00,,BKN250,0.00,VWS V14.01,2013-07-02 11:30:00,
2013-07-02 05:35:00,65.5,51.3,29.92,North,0,0.0,0.0,60,0.00,,BKN250,0.00,VWS V14.01,2013-07-02 11:35:00,
2013-07-02 05:40:00,65.2,51.4,29.92,North,0,0.0,0.0,61,0.00,,BKN250,0.00,VWS V14.01,2013-07-02 11:40:00,
2013-07-02 05:45:00,65.0,51.2,29.92,North,0,0.0,0.0,61,0.00,,BKN250,0.00,VWS V14.01,2013-07-02 11:45:00,
2013-07-02 05:50:00,64.8,51.5,29.92,North,0,0.0,0.0,62,0.00,,BKN250,0.00,VWS V14.01,2013-07-02 11:50:00,
2013-07-02 05:55:00,64.5,51.2,29.92,North,0,0.0,0.0,62,0.00,,BKN250,0.00,VWS V14.01,2013-07-02 11:55:00,
2013-07-02 06:00:00,64.3,51.0,29.92,North,0,0.0,0.0,62,0.00,,BKN250,0.00,VWS V14.01,2013-07-02 12:00:00,
2013-07-02 06:05:00,64.2,51.4,29.92,North,0,0.0,0.0,63,0.00,,BKN250,0.00,VWS V14.01,2013-07-02 12:05:00,
2013-07-02 06:10:00,64.0,51.2,29.92,North,0,0.0,0.0,63,0.00,,BKN250,0.00,VWS V14.01,2013-07-02 12:10:00,
2013-07-02 06:15:00,63.9,51.1,29.92,North,0,0.0,0.0,63,0.00,,BKN250,0.00,VWS V14.01,2013-07-02 12:15:00,
2013-07-02 06:20:00,64.0,50.7,29.93,North,0,0.0,0.0,62,0.00,,BKN250,0.00,VWS V14.01,2013-07-02 12:20:00,
2013-07-02 06:25:00,64.0,50.7,29.93,North,0,0.0,0.0,62,0.00,,BKN250,0.00,VWS V14.01,2013-07-02 12:25:00,
2013-07-02 06:30:00,64.2,50.5,29.93,North,0,0.0,0.0,61,0.00,,BKN250,0.00,VWS V14.01,2013-07-02 12:30:00,
2013-07-02 06:35:00,64.2,50.5,29.93,North,0,0.0,0.0,61,0.00,,BKN250,0.00,VWS V14.01,2013-07-02 12:35:00,
2013-07-02 06:40:00,64.3,50.6,29.93,North,0,0.0,0.0,61,0.00,,BKN250,0.00,VWS V14.01,2013-07-02 12:40:00,
2013-07-02 06:45:00,64.3,50.6,29.93,North,0,0.0,0.0,61,0.00,,BKN250,0.00,VWS V14.01,2013-07-02 12:45:00,
2013-07-02 06:50:00,64.3,50.6,29.93,North,0,0.0,0.0,61,0.00,,BKN250,0.00,VWS V14.01,2013-07-02 12:50:00,
2013-07-02 06:55:00,64.3,50.1,29.93,North,0,0.0,0.0,60,0.00,,BKN250,0.00,VWS V14.01,2013-07-02 12:55:00,
2013-07-02 07:00:00,64.5,50.3,29.93,North,0,0.0,0.0,60,0.00,,BKN250,0.00,VWS V14.01,2013-07-02 13:00:00,
2013-07-02 07:05:00,64.8,49.7,29.93,North,0,0.0,0.0,58,0.00,,BKN250,0.00,VWS V14.01,2013-07-02 13:05:00,
2013-07-02 07:10:00,65.3,49.7,29.93,North,0,0.0,0.0,57,0.00,,BKN250,0.00,VWS V14.01,2013-07-02 13:10:00,
2013-07-02 07:15:00,65.6,50.0,29.93,North,0,0.0,0.0,57,0.00,,BKN250,0.00,VWS V14.01,2013-07-02 13:15:00,
2013-07-02 07:20:00,66.1,50.0,29.94,North,0,0.0,0.0,56,0.00,,BKN250,0.00,VWS V14.01,2013-07-02 13:20:00,
2013-07-02 07:25:00,66.4,49.8,29.94,North,0,0.0,0.0,55,0.00,,BKN250,0.00,VWS V14.01,2013-07-02 13:25:00,
2013-07-02 07:30:00,67.1,49.4,29.94,North,0,0.0,0.0,53,0.00,,BKN250,0.00,VWS V14.01,2013-07-02 13:30:00,
2013-07-02 07:35:00,67.9,49.1,29.94,North,0,0.0,0.0,51,0.00,,SCT250,0.00,VWS V14.01,2013-07-02 13:35:00,
2013-07-02 07:40:00,68.9,49.0,29.94,North,0,0.0,0.0,49,0.00,,SCT250,0.00,VWS V14.01,2013-07-02 13:40:00,
2013-07-02 07:45:00,70.1,49.0,29.94,North,0,0.0,0.0,47,0.00,,SCT250,0.00,VWS V14.01,2013-07-02 13:45:00,
2013-07-02 07:50:00,70.8,49.6,29.94,North,0,0.0,0.0,47,0.00,,SCT250,0.00,VWS V14.01,2013-07-02 13:50:00,
2013-07-02 07:55:00,71.1,49.3,29.94,North,0,0.0,0.0,46,0.00,,SCT250,0.00,VWS V14.01,2013-07-02 13:55:00,
2013-07-02 08:00:00,71.6,48.6,29.94,North,0,0.0,0.0,44,0.00,,SCT250,0.00,VWS V14.01,2013-07-02 14:00:00,
2013-07-02 08:05:00,72.3,48.6,29.95,North,0,0.0,0.0,43,0.00,,SCT250,0.00,VWS V14.01,2013-07-02 14:05:00,
2013-07-02 08:10:00,72.8,48.4,29.95,North,0,0.0,0.0,42,0.00,,SCT250,0.00,VWS V14.01,2013-07-02 14:10:00,
2013-07-02 08:15:00,73.7,47.9,29.95,North,0,0.0,0.0,40,0.00,,SCT250,0.00,VWS V14.01,2013-07-02 14:15:00,
2013-07-02 08:20:00,74.2,47.0,29.95,North,0,0.0,0.0,38,0.00,,SCT250,0.00,VWS V14.01,2013-07-02 14:20:00,
2013-07-02 08:25:00,74.6,46.6,29.95,North,0,0.0,0.0,37,0.00,,SCT250,0.00,VWS V14.01,2013-07-02 14:25:00,
2013-07-02 08:30:00,74.9,46.9,29.95,North,0,0.0,0.0,37,0.00,,SCT250,0.00,VWS V14.01,2013-07-02 14:30:00,
2013-07-02 08:35:00,75.3,47.3,29.95,North,0,0.0,0.0,37,0.00,,SCT250,0.00,VWS V14.01,2013-07-02 14:35:00,
2013-07-02 08:40:00,75.3,47.3,29.95,North,0,0.0,0.0,37,0.00,,SCT250,0.00,VWS V14.01,2013-07-02 14:40:00,
2013-07-02 08:45:00,75.6,48.2,29.95,North,0,0.0,0.0,38,0.00,,SCT250,0.00,VWS V14.01,2013-07-02 14:45:00,
2013-07-02 08:50:00,76.0,47.9,29.95,North,0,0.0,0.0,37,0.00,,SCT250,0.00,VWS V14.01,2013-07-02 14:50:00,
2013-07-02 08:55:00,76.1,48.0,29.95,North,0,0.0,0.0,37,0.00,,SCT250,0.00,VWS V14.01,2013-07-02 14:55:00,
2013-07-02 09:00:00,76.3,48.1,29.95,North,0,0.0,0.0,37,0.00,,SCT250,0.00,VWS V14.01,2013-07-02 15:00:00,
2013-07-02 09:04:00,76.7,47.8,29.94,North,0,0.0,0.0,36,0.00,,SCT250,0.00,VWS V14.01,2013-07-02 15:04:00,
2013-07-02 09:09:00,77.2,48.2,29.94,North,0,0.0,0.0,36,0.00,,SCT250,0.00,VWS V14.01,2013-07-02 15:09:00,
2013-07-02 09:14:00,77.6,47.8,29.94,North,0,0.0,0.0,35,0.00,,SCT250,0.00,VWS V14.01,2013-07-02 15:14:00,
2013-07-02 09:19:00,78.1,47.5,29.95,North,0,0.0,0.0,34,0.00,,SCT250,0.00,VWS V14.01,2013-07-02 15:19:00,
2013-07-02 09:24:00,78.6,47.9,29.95,North,0,0.0,0.0,34,0.00,,SCT250,0.00,VWS V14.01,2013-07-02 15:24:00,
2013-07-02 09:29:00,78.5,47.8,29.95,North,0,0.0,0.0,34,0.00,,SCT250,0.00,VWS V14.01,2013-07-02 15:29:00,
2013-07-02 09:34:00,78.3,47.7,29.94,North,0,0.0,0.0,34,0.00,,SCT250,0.00,VWS V14.01,2013-07-02 15:34:00,
2013-07-02 09:39:00,78.3,47.7,29.94,North,0,0.0,0.0,34,0.00,,SCT250,0.00,VWS V14.01,2013-07-02 15:39:00,
2013-07-02 09:44:00,78.6,47.9,29.94,North,0,0.0,0.0,34,0.00,,SCT250,0.00,VWS V14.01,2013-07-02 15:44:00,
2013-07-02 09:49:00,79.0,48.3,29.94,North,0,0.0,0.0,34,0.00,,SCT250,0.00,VWS V14.01,2013-07-02 15:49:00,
2013-07-02 09:54:00,79.4,48.6,29.94,North,0,0.0,0.0,34,0.00,,SCT250,0.00,VWS V14.01,2013-07-02 15:54:00,
2013-07-02 09:59:00,79.9,48.3,29.94,North,0,0.0,0.0,33,0.00,,SCT250,0.00,VWS V14.01,2013-07-02 15:59:00,
2013-07-02 10:04:00,79.9,47.4,29.94,North,0,0.0,0.0,32,0.00,,SCT250,0.00,VWS V14.01,2013-07-02 16:04:00,
2013-07-02 10:09:00,79.8,48.2,29.94,North,0,0.0,0.0,33,0.00,,SCT250,0.00,VWS V14.01,2013-07-02 16:09:00,
2013-07-02 10:14:00,79.9,48.3,29.94,North,0,0.0,0.0,33,0.00,,SCT250,0.00,VWS V14.01,2013-07-02 16:14:00,
2013-07-02 10:19:00,80.7,47.3,29.94,North,0,0.0,0.0,31,0.00,,SCT250,0.00,VWS V14.01,2013-07-02 16:19:00,
2013-07-02 10:24:00,80.9,47.5,29.94,North,0,0.0,0.0,31,0.00,,SCT250,0.00,VWS V14.01,2013-07-02 16:24:00,
2013-07-02 10:29:00,81.1,47.6,29.94,North,0,0.0,0.0,31,0.00,,SCT250,0.00,VWS V14.01,2013-07-02 16:29:00,
2013-07-02 10:34:00,81.2,46.8,29.94,North,0,0.0,0.0,30,0.00,,SCT250,0.00,VWS V14.01,2013-07-02 16:34:00,
2013-07-02 10:39:00,81.4,47.9,29.94,North,0,0.0,0.0,31,0.00,,SCT250,0.00,VWS V14.01,2013-07-02 16:39:00,
2013-07-02 10:44:00,81.6,46.3,29.94,North,0,0.0,0.0,29,0.00,,SCT250,0.00,VWS V14.01,2013-07-02 16:44:00,
2013-07-02 10:49:00,81.2,46.0,29.94,North,0,0.0,0.0,29,0.00,,SCT250,0.00,VWS V14.01,2013-07-02 16:49:00,
2013-07-02 10:54:00,81.8,45.5,29.94,North,0,0.0,0.0,28,0.00,,SCT250,0.00,VWS V14.01,2013-07-02 16:54:00,
2013-07-02 10:59:00,82.2,45.9,29.94,North,0,0.0,0.0,28,0.00,,SCT250,0.00,VWS V14.01,2013-07-02 16:59:00,
2013-07-02 11:04:00,82.8,46.4,29.94,North,0,0.0,0.0,28,0.00,,SCT250,0.00,VWS V14.01,2013-07-02 17:04:00,
2013-07-02 11:09:00,82.6,46.2,29.94,North,0,0.0,0.0,28,0.00,,SCT250,0.00,VWS V14.01,2013-07-02 17:09:00,
2013-07-02 11:14:00,82.8,46.4,29.94,North,0,0.0,0.0,28,0.00,,SCT250,0.00,VWS V14.01,2013-07-02 17:14:00,
2013-07-02 11:19:00,82.6,46.2,29.94,North,0,0.0,0.0,28,0.00,,SCT250,0.00,VWS V14.01,2013-07-02 17:19:00,
2013-07-02 11:24:00,82.6,46.2,29.94,North,0,0.0,0.0,28,0.00,,SCT250,0.00,VWS V14.01,2013-07-02 17:24:00,
2013-07-02 11:29:00,82.2,45.9,29.94,North,0,0.0,0.0,28,0.00,,SCT250,0.00,VWS V14.01,2013-07-02 17:29:00,
2013-07-02 11:34:00,82.4,46.1,29.93,North,0,0.0,0.0,28,0.00,,SCT250,0.00,VWS V14.01,2013-07-02 17:34:00,
2013-07-02 11:39:00,83.0,46.6,29.93,North,0,0.0,0.0,28,0.00,,SCT250,0.00,VWS V14.01,2013-07-02 17:39:00,
2013-07-02 11:44:00,83.6,47.1,29.93,North,0,0.0,0.0,28,0.00,,SCT250,0.00,VWS V14.01,2013-07-02 17:44:00,
2013-07-02 11:49:00,84.1,46.5,29.94,North,0,0.0,0.0,27,0.00,,SCT250,0.00,VWS V14.01,2013-07-02 17:49:00,
2013-07-02 11:54:00,84.3,46.7,29.94,North,0,0.0,0.0,27,0.00,,SCT250,0.00,VWS V14.01,2013-07-02 17:54:00,
2013-07-02 11:59:00,84.5,46.9,29.94,North,0,0.0,0.0,27,0.00,,BKN250,0.00,VWS V14.01,2013-07-02 17:59:00,
2013-07-02 12:04:00,84.9,46.2,29.93,North,0,0.0,0.0,26,0.00,,BKN250,0.00,VWS V14.01,2013-07-02 18:04:00,
2013-07-02 12:09:00,85.1,47.4,29.93,North,0,0.0,0.0,27,0.00,,BKN250,0.00,VWS V14.01,2013-07-02 18:09:00,
2013-07-02 12:14:00,84.9,46.2,29.93,North,0,0.0,0.0,26,0.00,,BKN250,0.00,VWS V14.01,2013-07-02 18:14:00,
2013-07-02 12:19:00,84.7,46.1,29.92,North,0,0.0,0.0,26,0.00,,BKN250,0.00,VWS V14.01,2013-07-02 18:19:00,
2013-07-02 12:24:00,85.3,46.6,29.92,North,0,0.0,0.0,26,0.00,,BKN250,0.00,VWS V14.01,2013-07-02 18:24:00,
2013-07-02 12:29:00,85.9,47.1,29.92,North,0,0.0,0.0,26,0.00,,BKN250,0.00,VWS V14.01,2013-07-02 18:29:00,
2013-07-02 12:34:00,86.1,47.2,29.92,North,0,0.0,0.0,26,0.00,,BKN250,0.00,VWS V14.01,2013-07-02 18:34:00,
2013-07-02 12:39:00,86.5,46.5,29.92,North,0,0.0,0.0,25,0.00,,BKN250,0.00,VWS V14.01,2013-07-02 18:39:00,
2013-07-02 12:44:00,87.2,47.1,29.92,North,0,0.0,0.0,25,0.00,,BKN250,0.00,VWS V14.01,2013-07-02 18:44:00,
2013-07-02 12:49:00,87.4,46.2,29.91,North,0,0.0,0.0,24,0.00,,BKN250,0.00,VWS V14.01,2013-07-02 18:49:00,
2013-07-02 12:54:00,86.3,46.4,29.91,North,0,0.0,0.0,25,0.00,,BKN250,0.00,VWS V14.01,2013-07-02 18:54:00,
2013-07-02 12:59:00,86.1,46.2,29.91,North,0,0.0,0.0,25,0.00,,SCT250,0.00,VWS V14.01,2013-07-02 18:59:00,
2013-07-02 13:04:00,86.7,45.6,29.91,North,0,0.0,0.0,24,0.00,,SCT250,0.00,VWS V14.01,2013-07-02 19:04:00,
2013-07-02 13:09:00,87.0,45.9,29.91,North,0,0.0,0.0,24,0.00,,SCT250,0.00,VWS V14.01,2013-07-02 19:09:00,
2013-07-02 13:14:00,87.2,46.0,29.91,North,0,0.0,0.0,24,0.00,,SCT250,0.00,VWS V14.01,2013-07-02 19:14:00,
2013-07-02 13:19:00,87.2,47.1,29.91,North,0,0.0,0.0,25,0.00,,SCT250,0.00,VWS V14.01,2013-07-02 19:19:00,
2013-07-02 13:24:00,88.0,46.7,29.91,North,0,0.0,0.0,24,0.00,,SCT250,0.00,VWS V14.01,2013-07-02 19:24:00,
2013-07-02 13:29:00,88.2,46.9,29.91,North,0,0.0,0.0,24,0.00,,SCT250,0.00,VWS V14.01,2013-07-02 19:29:00,
2013-07-02 13:34:00,88.2,46.9,29.90,North,0,0.0,0.0,24,0.00,,SCT250,0.00,VWS V14.01,2013-07-02 19:34:00,
2013-07-02 13:39:00,88.6,46.1,29.90,North,0,0.0,0.0,23,0.00,,SCT250,0.00,VWS V14.01,2013-07-02 19:39:00,
2013-07-02 13:44:00,89.3,45.5,29.90,North,0,0.0,0.0,22,0.00,,SCT250,0.00,VWS V14.01,2013-07-02 19:44:00,
2013-07-02 13:49:00,89.5,46.8,29.88,North,0,0.0,0.0,23,0.00,,SCT250,0.00,VWS V14.01,2013-07-02 19:49:00,
2013-07-02 13:54:00,89.5,46.8,29.88,North,0,0.0,0.0,23,0.00,,SCT250,0.00,VWS V14.01,2013-07-02 19:54:00,
2013-07-02 13:59:00,89.5,45.7,29.88,North,0,0.0,0.0,22,0.00,,SCT250,0.00,VWS V14.01,2013-07-02 19:59:00,
2013-07-02 14:04:00,89.3,45.5,29.88,North,0,0.0,0.0,22,0.00,,SCT250,0.00,VWS V14.01,2013-07-02 20:04:00,
2013-07-02 14:09:00,89.7,45.8,29.88,North,0,0.0,0.0,22,0.00,,SCT250,0.00,VWS V14.01,2013-07-02 20:09:00,
2013-07-02 14:14:00,90.1,45.0,29.88,North,0,0.0,0.0,21,0.00,,SCT250,0.00,VWS V14.01,2013-07-02 20:14:00,
2013-07-02 14:19:00,90.5,45.3,29.86,North,0,0.0,0.0,21,0.00,,SCT250,0.00,VWS V14.01,2013-07-02 20:19:00,
2013-07-02 14:24:00,90.7,45.4,29.86,North,0,0.0,0.0,21,0.00,,SCT250,0.00,VWS V14.01,2013-07-02 20:24:00,
2013-07-02 14:29:00,91.2,45.8,29.86,North,0,0.0,0.0,21,0.00,,SCT250,0.00,VWS V14.01,2013-07-02 20:29:00,
2013-07-02 14:34:00,90.3,45.1,29.87,North,0,0.0,0.0,21,0.00,,SCT250,0.00,VWS V14.01,2013-07-02 20:34:00,
2013-07-02 14:39:00,89.5,46.8,29.87,North,0,0.0,0.0,23,0.00,,SCT250,0.00,VWS V14.01,2013-07-02 20:39:00,
2013-07-02 14:44:00,89.0,46.4,29.87,North,0,0.0,0.0,23,0.00,,SCT250,0.00,VWS V14.01,2013-07-02 20:44:00,
2013-07-02 14:49:00,89.3,45.5,29.85,North,0,0.0,0.0,22,0.00,,SCT250,0.00,VWS V14.01,2013-07-02 20:49:00,
2013-07-02 14:54:00,89.9,44.8,29.85,North,0,0.0,0.0,21,0.00,,SCT250,0.00,VWS V14.01,2013-07-02 20:54:00,
2013-07-02 14:59:00,90.1,45.0,29.85,North,0,0.0,0.0,21,0.00,,FEW080,0.00,VWS V14.01,2013-07-02 20:59:00,
2013-07-02 15:04:00,89.9,44.8,29.85,North,0,0.0,0.0,21,0.00,,FEW080,0.00,VWS V14.01,2013-07-02 21:04:00,
2013-07-02 15:09:00,89.3,44.3,29.85,North,0,0.0,0.0,21,0.00,,FEW080,0.00,VWS V14.01,2013-07-02 21:09:00,
2013-07-02 15:14:00,89.7,44.6,29.85,North,0,0.0,0.0,21,0.00,,FEW080,0.00,VWS V14.01,2013-07-02 21:14:00,
2013-07-02 15:19:00,90.7,44.2,29.85,North,0,0.0,0.0,20,0.00,,FEW080,0.00,VWS V14.01,2013-07-02 21:19:00,
2013-07-02 15:24:00,91.2,43.2,29.85,North,0,0.0,0.0,19,0.00,,FEW080,0.00,VWS V14.01,2013-07-02 21:24:00,
2013-07-02 15:29:00,91.4,44.7,29.85,North,0,0.0,0.0,20,0.00,,FEW080,0.00,VWS V14.01,2013-07-02 21:29:00,
2013-07-02 15:34:00,91.2,44.6,29.84,North,0,0.0,0.0,20,0.00,,FEW080,0.00,VWS V14.01,2013-07-02 21:34:00,
2013-07-02 15:39:00,91.2,44.6,29.84,North,0,0.0,0.0,20,0.00,,FEW080,0.00,VWS V14.01,2013-07-02 21:39:00,
2013-07-02 15:44:00,91.2,44.6,29.84,North,0,0.0,0.0,20,0.00,,FEW080,0.00,VWS V14.01,2013-07-02 21:44:00,
2013-07-02 15:49:00,91.2,44.6,29.82,North,0,0.0,0.0,20,0.00,,FEW080,0.00,VWS V14.01,2013-07-02 21:49:00,
2013-07-02 15:54:00,91.4,43.4,29.82,North,0,0.0,0.0,19,0.00,,FEW080,0.00,VWS V14.01,2013-07-02 21:54:00,
2013-07-02 15:59:00,91.8,43.7,29.82,North,0,0.0,0.0,19,0.00,,FEW080,0.00,VWS V14.01,2013-07-02 21:59:00,
2013-07-02 16:04:00,91.4,43.4,29.82,North,0,0.0,0.0,19,0.00,,FEW080,0.00,VWS V14.01,2013-07-02 22:04:00,
2013-07-02 16:09:00,91.4,44.7,29.82,North,0,0.0,0.0,20,0.00,,FEW080,0.00,VWS V14.01,2013-07-02 22:09:00,
2013-07-02 16:14:00,91.2,44.6,29.82,North,0,0.0,0.0,20,0.00,,FEW080,0.00,VWS V14.01,2013-07-02 22:14:00,
2013-07-02 16:19:00,91.0,43.1,29.81,North,0,0.0,0.0,19,0.00,,FEW080,0.00,VWS V14.01,2013-07-02 22:19:00,
2013-07-02 16:24:00,90.5,42.7,29.81,North,0,0.0,0.0,19,0.00,,FEW080,0.00,VWS V14.01,2013-07-02 22:24:00,
2013-07-02 16:29:00,90.3,42.5,29.81,North,0,0.0,0.0,19,0.00,,FEW080,0.00,VWS V14.01,2013-07-02 22:29:00,
2013-07-02 16:33:00,91.2,43.2,29.80,North,0,0.0,0.0,19,0.00,,FEW080,0.00,VWS V14.01,2013-07-02 22:33:00,
2013-07-02 16:34:00,91.2,43.2,29.80,North,0,0.0,0.0,19,0.00,,FEW080,0.00,VWS V14.01,2013-07-02 22:34:00,
2013-07-02 16:39:00,91.4,43.4,29.80,North,0,0.0,0.0,19,0.00,,FEW080,0.00,VWS V14.01,2013-07-02 22:39:00,
2013-07-02 16:44:00,91.4,44.7,29.80,North,0,0.0,0.0,20,0.00,,FEW080,0.00,VWS V14.01,2013-07-02 22:44:00,
2013-07-02 16:48:00,91.2,43.2,29.80,North,0,0.0,0.0,19,0.00,,FEW080,0.00,VWS V14.01,2013-07-02 22:48:00,
2013-07-02 16:53:00,90.5,42.7,29.80,North,0,0.0,0.0,19,0.00,,FEW080,0.00,VWS V14.01,2013-07-02 22:53:00,
2013-07-02 16:58:00,89.9,43.5,29.80,North,0,0.0,0.0,20,0.00,,BKN250,0.00,VWS V14.01,2013-07-02 22:58:00,
2013-07-02 17:03:00,89.7,43.3,29.80,North,0,0.0,0.0,20,0.00,,BKN250,0.00,VWS V14.01,2013-07-02 23:03:00,
2013-07-02 17:08:00,89.7,43.3,29.80,North,0,0.0,0.0,20,0.00,,BKN250,0.00,VWS V14.01,2013-07-02 23:08:00,
2013-07-02 17:13:00,89.7,43.3,29.80,North,0,0.0,0.0,20,0.00,,BKN250,0.00,VWS V14.01,2013-07-02 23:13:00,
2013-07-02 17:18:00,89.7,43.3,29.80,North,0,0.0,0.0,20,0.00,,BKN250,0.00,VWS V14.01,2013-07-02 23:18:00,
2013-07-02 17:23:00,89.7,43.3,29.80,North,0,0.0,0.0,20,0.00,,BKN250,0.00,VWS V14.01,2013-07-02 23:23:00,
2013-07-02 17:28:00,89.5,43.2,29.80,North,0,0.0,0.0,20,0.00,,BKN250,0.00,VWS V14.01,2013-07-02 23:28:00,
2013-07-02 17:29:00,89.5,43.2,29.80,North,0,0.0,0.0,20,0.00,,BKN250,0.00,VWS V14.01,2013-07-02 23:29:00,
2013-07-02 17:34:00,89.3,44.3,29.80,North,0,0.0,0.0,21,0.00,,BKN250,0.00,VWS V14.01,2013-07-02 23:34:00,
2013-07-02 17:39:00,88.8,43.9,29.80,North,0,0.0,0.0,21,0.00,,BKN250,0.00,VWS V14.01,2013-07-02 23:39:00,
2013-07-02 17:44:00,88.8,43.9,29.80,North,0,0.0,0.0,21,0.00,,BKN250,0.00,VWS V14.01,2013-07-02 23:44:00,
2013-07-02 17:49:00,88.6,43.7,29.78,North,0,0.0,0.0,21,0.00,,BKN250,0.00,VWS V14.01,2013-07-02 23:49:00,
2013-07-02 17:54:00,88.4,43.5,29.78,North,0,0.0,0.0,21,0.00,,BKN250,0.00,VWS V14.01,2013-07-02 23:54:00,
2013-07-02 17:59:00,88.6,43.7,29.78,North,0,0.0,0.0,21,0.00,,BKN250,0.00,VWS V14.01,2013-07-02 23:59:00,
2013-07-02 18:01:00,88.6,43.7,29.80,North,0,0.0,0.0,21,0.00,,BKN250,0.00,VWS V14.01,2013-07-03 00:01:00,
2013-07-02 18:06:00,88.2,43.4,29.80,North,0,0.0,0.0,21,0.00,,BKN250,0.00,VWS V14.01,2013-07-03 00:06:00,
2013-07-02 18:11:00,88.0,43.2,29.80,North,0,0.0,0.0,21,0.00,,BKN250,0.00,VWS V14.01,2013-07-03 00:11:00,
2013-07-02 18:16:00,87.8,43.0,29.78,North,0,0.0,0.0,21,0.00,,BKN250,0.00,VWS V14.01,2013-07-03 00:16:00,
2013-07-02 18:21:00,87.6,42.9,29.78,North,0,0.0,0.0,21,0.00,,BKN250,0.00,VWS V14.01,2013-07-03 00:21:00,
2013-07-02 18:23:00,87.4,42.7,29.78,North,0,0.0,0.0,21,0.00,,BKN250,0.00,VWS V14.01,2013-07-03 00:23:00,
2013-07-02 18:24:00,87.4,42.7,29.78,North,0,0.0,0.0,21,0.00,,BKN250,0.00,VWS V14.01,2013-07-03 00:24:00,
2013-07-02 18:28:00,87.2,42.5,29.78,North,0,0.0,0.0,21,0.00,,BKN250,0.00,VWS V14.01,2013-07-03 00:28:00,
2013-07-02 18:33:00,87.0,43.6,29.78,North,0,0.0,0.0,22,0.00,,BKN250,0.00,VWS V14.01,2013-07-03 00:33:00,
2013-07-02 18:38:00,86.7,42.1,29.78,North,0,0.0,0.0,21,0.00,,BKN250,0.00,VWS V14.01,2013-07-03 00:38:00,
2013-07-02 18:43:00,86.5,42.0,29.78,North,0,0.0,0.0,21,0.00,,BKN250,0.00,VWS V14.01,2013-07-03 00:43:00,
2013-07-02 18:48:00,86.5,43.2,29.78,North,0,0.0,0.0,22,0.00,,BKN250,0.00,VWS V14.01,2013-07-03 00:48:00,
2013-07-02 18:53:00,86.3,43.0,29.78,North,0,0.0,0.0,22,0.00,,BKN250,0.00,VWS V14.01,2013-07-03 00:53:00,
2013-07-02 18:58:00,86.1,42.8,29.78,North,0,0.0,0.0,22,0.00,,OVC250,0.00,VWS V14.01,2013-07-03 00:58:00,
2013-07-02 19:00:00,85.9,43.8,29.78,North,0,0.0,0.0,23,0.00,,OVC250,0.00,VWS V14.01,2013-07-03 01:00:00,
2013-07-02 19:03:00,85.7,43.7,29.80,North,0,0.0,0.0,23,0.00,,OVC250,0.00,VWS V14.01,2013-07-03 01:03:00,
2013-07-02 19:08:00,85.5,42.3,29.80,North,0,0.0,0.0,22,0.00,,OVC250,0.00,VWS V14.01,2013-07-03 01:08:00,
2013-07-02 19:09:00,85.5,43.5,29.80,North,0,0.0,0.0,23,0.00,,OVC250,0.00,VWS V14.01,2013-07-03 01:09:00,
2013-07-02 19:14:00,85.3,43.3,29.80,North,0,0.0,0.0,23,0.00,,OVC250,0.00,VWS V14.01,2013-07-03 01:14:00,
2013-07-02 19:19:00,85.3,43.3,29.78,North,0,0.0,0.0,23,0.00,,OVC250,0.00,VWS V14.01,2013-07-03 01:19:00,
2013-07-02 19:23:00,84.9,43.0,29.78,North,0,0.0,0.0,23,0.00,,OVC250,0.00,VWS V14.01,2013-07-03 01:23:00,
2013-07-02 19:26:00,84.9,43.0,29.78,North,0,0.0,0.0,23,0.00,,OVC250,0.00,VWS V14.01,2013-07-03 01:26:00,
2013-07-02 19:31:00,84.7,42.8,29.78,North,0,0.0,0.0,23,0.00,,OVC250,0.00,VWS V14.01,2013-07-03 01:31:00,
2013-07-02 19:36:00,84.5,42.7,29.78,North,0,0.0,0.0,23,0.00,,OVC250,0.00,VWS V14.01,2013-07-03 01:36:00,
2013-07-02 19:41:00,84.3,42.5,29.78,North,0,0.0,0.0,23,0.00,,OVC250,0.00,VWS V14.01,2013-07-03 01:41:00,
2013-07-02 19:46:00,84.1,42.3,29.80,North,0,0.0,0.0,23,0.00,,OVC250,0.00,VWS V14.01,2013-07-03 01:46:00,
2013-07-02 19:49:00,84.1,43.5,29.80,North,0,0.0,0.0,24,0.00,,OVC250,0.00,VWS V14.01,2013-07-03 01:49:00,
2013-07-02 19:50:00,84.0,43.4,29.80,North,0,0.0,0.0,24,0.00,,OVC250,0.00,VWS V14.01,2013-07-03 01:50:00,
2013-07-02 19:55:00,84.0,42.3,29.80,North,0,0.0,0.0,23,0.00,,OVC250,0.00,VWS V14.01,2013-07-03 01:55:00,
2013-07-02 20:00:00,83.8,42.1,29.80,North,0,0.0,0.0,23,0.00,,OVC250,0.00,VWS V14.01,2013-07-03 02:00:00,
2013-07-02 20:05:00,83.6,43.0,29.78,North,0,0.0,0.0,24,0.00,,OVC250,0.00,VWS V14.01,2013-07-03 02:05:00,
2013-07-02 20:10:00,83.6,43.0,29.78,North,0,0.0,0.0,24,0.00,,OVC250,0.00,VWS V14.01,2013-07-03 02:10:00,
2013-07-02 20:15:00,83.4,42.9,29.78,North,0,0.0,0.0,24,0.00,,OVC250,0.00,VWS V14.01,2013-07-03 02:15:00,
2013-07-02 20:20:00,83.2,42.7,29.80,North,0,0.0,0.0,24,0.00,,OVC250,0.00,VWS V14.01,2013-07-03 02:20:00,
2013-07-02 20:25:00,83.0,42.5,29.80,North,0,0.0,0.0,24,0.00,,OVC250,0.00,VWS V14.01,2013-07-03 02:25:00,
2013-07-02 20:30:00,83.0,42.5,29.80,North,0,0.0,0.0,24,0.00,,OVC250,0.00,VWS V14.01,2013-07-03 02:30:00,
2013-07-02 20:32:00,83.0,42.5,29.80,North,0,0.0,0.0,24,0.00,,OVC250,0.00,VWS V14.01,2013-07-03 02:32:00,
2013-07-02 20:38:00,82.8,43.4,29.80,North,0,0.0,0.0,25,0.00,,OVC250,0.00,VWS V14.01,2013-07-03 02:38:00,
2013-07-02 20:42:00,82.6,43.2,29.80,North,0,0.0,0.0,25,0.00,,OVC250,0.00,VWS V14.01,2013-07-03 02:42:00,
2013-07-02 20:46:00,82.6,42.2,29.80,North,0,0.0,0.0,24,0.00,,OVC250,0.00,VWS V14.01,2013-07-03 02:46:00,
2013-07-02 20:51:00,82.4,42.0,29.80,North,0,0.0,0.0,24,0.00,,OVC250,0.00,VWS V14.01,2013-07-03 02:51:00,
2013-07-02 20:56:00,82.4,42.0,29.80,North,0,0.0,0.0,24,0.00,,OVC250,0.00,VWS V14.01,2013-07-03 02:56:00,
2013-07-02 21:01:00,82.2,41.8,29.81,North,0,0.0,0.0,24,0.00,,OVC250,0.00,VWS V14.01,2013-07-03 03:01:00,
2013-07-02 21:02:00,82.2,41.8,29.81,North,0,0.0,0.0,24,0.00,,OVC250,0.00,VWS V14.01,2013-07-03 03:02:00,
2013-07-02 21:07:00,82.0,41.7,29.81,North,0,0.0,0.0,24,0.00,,OVC250,0.00,VWS V14.01,2013-07-03 03:07:00,
2013-07-02 21:12:00,82.0,41.7,29.81,North,0,0.0,0.0,24,0.00,,OVC250,0.00,VWS V14.01,2013-07-03 03:12:00,
2013-07-02 21:17:00,82.0,41.7,29.81,North,0,0.0,0.0,24,0.00,,OVC250,0.00,VWS V14.01,2013-07-03 03:17:00,
2013-07-02 21:20:00,82.0,41.7,29.81,North,0,0.0,0.0,24,0.00,,OVC250,0.00,VWS V14.01,2013-07-03 03:20:00,
2013-07-02 21:25:00,82.0,41.7,29.81,North,0,0.0,0.0,24,0.00,,OVC250,0.00,VWS V14.01,2013-07-03 03:25:00,
2013-07-02 21:30:00,82.0,41.7,29.81,North,0,0.0,0.0,24,0.00,,OVC250,0.00,VWS V14.01,2013-07-03 03:30:00,
2013-07-02 21:35:00,82.0,41.7,29.83,North,0,0.0,0.0,24,0.00,,OVC250,0.00,VWS V14.01,2013-07-03 03:35:00,
2013-07-02 21:39:00,82.0,41.7,29.83,North,0,0.0,0.0,24,0.00,,OVC250,0.00,VWS V14.01,2013-07-03 03:39:00,
2013-07-02 21:44:00,81.8,41.5,29.83,North,0,0.0,0.0,24,0.00,,OVC250,0.00,VWS V14.01,2013-07-03 03:44:00,
2013-07-02 21:49:00,81.8,42.6,29.84,North,0,0.0,0.0,25,0.00,,OVC250,0.00,VWS V14.01,2013-07-03 03:49:00,
2013-07-02 21:54:00,81.8,42.6,29.84,North,0,0.0,0.0,25,0.00,,OVC250,0.00,VWS V14.01,2013-07-03 03:54:00,
2013-07-02 21:59:00,81.8,42.6,29.84,North,0,0.0,0.0,25,0.00,,-RA,0.00,VWS V14.01,2013-07-03 03:59:00,
2013-07-02 22:00:00,81.8,42.6,29.84,North,0,0.0,0.0,25,0.00,,-RA,0.00,VWS V14.01,2013-07-03 04:00:00,
2013-07-02 22:01:00,81.8,44.6,29.87,North,0,0.0,0.0,27,0.00,,-RA,0.00,VWS V14.01,2013-07-03 04:01:00,
2013-07-02 22:03:00,81.4,46.1,29.87,North,0,0.0,0.0,29,0.00,,-RA,0.00,VWS V14.01,2013-07-03 04:03:00,
2013-07-02 22:04:00,81.2,46.8,29.87,North,0,0.0,0.0,30,0.00,,-RA,0.00,VWS V14.01,2013-07-03 04:04:00,
2013-07-02 22:09:00,79.9,49.8,29.87,North,0,0.0,0.0,35,0.00,,-RA,0.00,VWS V14.01,2013-07-03 04:09:00,
2013-07-02 22:14:00,78.6,52.3,29.87,North,0,0.0,0.0,40,0.00,,-RA,0.00,VWS V14.01,2013-07-03 04:14:00,
2013-07-02 22:19:00,77.7,52.8,29.86,North,0,0.0,0.0,42,0.00,,-RA,0.00,VWS V14.01,2013-07-03 04:19:00,
2013-07-02 22:24:00,77.0,55.2,29.86,North,0,0.0,0.0,47,0.00,,-RA,0.00,VWS V14.01,2013-07-03 04:24:00,
2013-07-02 22:29:00,76.5,55.4,29.86,North,0,0.0,0.0,48,0.00,,-RA,0.00,VWS V14.01,2013-07-03 04:29:00,
2013-07-02 22:31:00,76.3,55.2,29.86,North,0,0.0,0.0,48,0.00,,-RA,0.00,VWS V14.01,2013-07-03 04:31:00,
2013-07-02 22:32:00,76.1,55.0,29.86,North,0,0.0,0.0,48,0.00,,-RA,0.00,VWS V14.01,2013-07-03 04:32:00,
2013-07-02 22:37:00,76.0,54.9,29.86,North,0,0.0,0.0,48,0.00,,-RA,0.00,VWS V14.01,2013-07-03 04:37:00,
2013-07-02 22:42:00,76.0,54.9,29.86,North,0,0.0,0.0,48,0.00,,-RA,0.00,VWS V14.01,2013-07-03 04:42:00,
2013-07-02 22:45:00,76.0,54.9,29.86,North,0,0.0,0.0,48,0.00,,-RA,0.00,VWS V14.01,2013-07-03 04:45:00,
2013-07-02 22:46:00,76.0,54.3,29.86,North,0,0.0,0.0,47,0.00,,-RA,0.00,VWS V14.01,2013-07-03 04:46:00,
2013-07-02 22:51:00,76.0,54.3,29.86,North,0,0.0,0.0,47,0.00,,-RA,0.00,VWS V14.01,2013-07-03 04:51:00,
2013-07-02 22:53:00,76.1,53.8,29.86,North,0,0.0,0.0,46,0.00,,-RA,0.00,VWS V14.01,2013-07-03 04:53:00,
2013-07-02 22:58:00,76.1,53.8,29.86,North,0,0.0,0.0,46,0.00,,OVC100,0.00,VWS V14.01,2013-07-03 04:58:00,
2013-07-02 23:03:00,76.5,53.6,29.86,North,0,0.0,0.0,45,0.00,,OVC100,0.00,VWS V14.01,2013-07-03 05:03:00,
2013-07-02 23:07:00,76.7,53.2,29.86,North,0,0.0,0.0,44,0.00,,OVC100,0.00,VWS V14.01,2013-07-03 05:07:00,
2013-07-02 23:12:00,76.7,53.8,29.86,North,0,0.0,0.0,45,0.00,,OVC100,0.00,VWS V14.01,2013-07-03 05:12:00,
2013-07-02 23:17:00,76.7,53.2,29.86,North,0,0.0,0.0,44,0.00,,OVC100,0.00,VWS V14.01,2013-07-03 05:17:00,
2013-07-02 23:19:00,76.7,53.8,29.86,North,0,0.0,0.0,45,0.00,,OVC100,0.00,VWS V14.01,2013-07-03 05:19:00,
2013-07-02 23:24:00,76.7,53.8,29.86,North,0,0.0,0.0,45,0.00,,OVC100,0.00,VWS V14.01,2013-07-03 05:24:00,
2013-07-02 23:29:00,76.7,54.4,29.86,North,0,0.0,0.0,46,0.00,,OVC100,0.00,VWS V14.01,2013-07-03 05:29:00,
2013-07-02 23:34:00,76.5,53.0,29.87,North,0,0.0,0.0,44,0.00,,OVC100,0.00,VWS V14.01,2013-07-03 05:34:00,
2013-07-02 23:39:00,76.1,48.0,29.87,North,0,0.0,0.0,37,0.00,,OVC100,0.00,VWS V14.01,2013-07-03 05:39:00,
2013-07-02 23:44:00,75.8,47.0,29.87,North,0,0.0,0.0,36,0.00,,OVC100,0.00,VWS V14.01,2013-07-03 05:44:00,
2013-07-02 23:49:00,75.4,46.6,29.87,North,0,0.0,0.0,36,0.00,,OVC100,0.00,VWS V14.01,2013-07-03 05:49:00,
2013-07-02 23:54:00,75.4,46.6,29.87,North,0,0.0,0.0,36,0.00,,OVC100,0.00,VWS V14.01,2013-07-03 05:54:00,
2013-07-02 23:57:00,75.4,46.6,29.87,North,0,0.0,0.0,36,0.00,,OVC150,0.00,VWS V14.01,2013-07-03 05:57:00,
2013-07-02 23:58:00,75.4,46.6,29.87,North,0,0.0,0.0,36,0.00,,OVC150,0.00,VWS V14.01,2013-07-03 05:58:00,